This is the latest recevied weather packets stored in our database for station/object DL9GJ-6. If no packets are shown the sender has not sent any weather packets the latest 1 day(s).
| Time | Temp. | Humidity | Pressure | Rain* | Wind** | Luminosity | Snow |
|---|---|---|---|---|---|---|---|
| 1778048421 | 11.67° C | 92% | 1005.8 hPa | 0 mm | - | 246 W/m² | - |
| 1778048407 | 11.67° C | 92% | 1005.8 hPa | 0 mm | - | 246 W/m² | - |
| 1778048060 | 11.11° C | 92% | 1006 hPa | 0 mm | - | 171 W/m² | - |
| 1778047701 | 11.11° C | 93% | 1006 hPa | 0 mm | - | 158 W/m² | - |
| 1778047340 | 10.56° C | 93% | 1006 hPa | 0 mm | - | 289 W/m² | - |
| 1778046981 | 10.56° C | 93% | 1006.1 hPa | 0 mm | - | 265 W/m² | - |
| 1778046621 | 10° C | 93% | 1006.1 hPa | 0 mm | - | 212 W/m² | - |
| 1778046261 | 9.44° C | 93% | 1005.9 hPa | 0 mm | - | 241 W/m² | - |
| 1778044101 | 7.78° C | 93% | 1006.1 hPa | 0 mm | - | 54 W/m² | - |
| 1778043740 | 7.78° C | 93% | 1006.2 hPa | 0 mm | - | 52 W/m² | - |
| 1778043380 | 7.78° C | 93% | 1006.2 hPa | 0 mm | - | 54 W/m² | - |
| 1778043371 | 7.78° C | 93% | 1006.2 hPa | 0 mm | - | 54 W/m² | - |
| 1778043020 | 7.22° C | 93% | 1006.3 hPa | 0 mm | - | 53 W/m² | - |
| 1778042661 | 7.22° C | 93% | 1006.3 hPa | 0 mm | - | 37 W/m² | - |
| 1778042301 | 7.22° C | 93% | 1006.3 hPa | 0 mm | - | 29 W/m² | - |
| 1778041940 | 7.22° C | 93% | 1006.3 hPa | 0 mm | - | 24 W/m² | - |
| 1778041580 | 7.22° C | 92% | 1006.3 hPa | 0 mm | - | 18 W/m² | - |
| 1778041220 | 7.22° C | 92% | 1006.4 hPa | 0 mm | - | 13 W/m² | - |
| 1778040861 | 7.22° C | 92% | 1006.5 hPa | 0 mm | - | 7 W/m² | - |
| 1778040502 | 7.22° C | 93% | 1006.6 hPa | 0 mm | - | 4 W/m² | - |
| 1778040141 | 7.22° C | 93% | 1006.5 hPa | 0 mm | - | 0 W/m² | - |
| 1778040128 | 7.22° C | 93% | 1006.5 hPa | 0 mm | - | 0 W/m² | - |
| 1778038687 | 7.78° C | 92% | 1006.9 hPa | 0 mm | - | 0 W/m² | - |
| 1778038340 | 7.78° C | 92% | 1006.9 hPa | 0 mm | - | 0 W/m² | - |
| 1778037981 | 7.78° C | 92% | 1006.9 hPa | 0 mm | - | 0 W/m² | - |
* Rain latest hour (hover to see other rain measurements)
** Current wind speed in m/s (hover to see current wind gust speed)